Location: Musselshell
(46.5176°N, 108.0911°W)
Time: 12:39:35
(UTC+00:00)

EO-88 - Pass Details

Date: 30 June 2022
Orbit: 453 x 461 km, 97.3° (Epoch: 13 August)

Event Time Altitude Azimuth Distance (km) Brightness Sun altitude
Exits shadow 03:41:27 - 125° (SE) 1,913 ? -5.1°
Reaches altitude 10° 03:42:17 10° 117° (ESE) 1,627 ? -5.2°
Maximum altitude 03:44:58 21° 67° (ENE) 1,109 ? -5.6°
Drops below altitude 10° 03:47:39 10° 17° (NNE) 1,637 ? -5.9°
Sets 03:50:03 0° 1° (N) 2,517 ? -6.2°
